GFSNE_850_temp_315.txt.gz
Temp
9 8 8 7 6 6 5 4 2 1 2 2 1 0 -1 -1 -1 0 0 -0 -0 -2 -3 -4 -4 -4 -4 -4 -4 -5 -5 -5 -5 -5 -5 -6 -5 -5
8 7 7 7 6 6 5 4 3 1 0 1 0 -1 -1 -1 -0 -0 -0 -0 -2 -3 -4 -4 -4 -4 -4 -4 -4 -4 -4 -4 -5 -6 -5 -5 -5 -6
8 8 7 6 6 6 5 4 4 3 2 1 -1 -1 -1 -1 -0 -1 -1 -1 -2 -3 -4 -4 -4 -4 -4 -4 -5 -4 -4 -6 -6 -6 -6 -6 -7 -6
8 7 6 6 5 5 5 4 3 2 1 1 0 -0 -1 -1 -1 -1 -1 -2 -3 -4 -4 -4 -4 -5 -5 -4 -5 -5 -6 -7 -6 -6 -7 -6 -7 -7
7 7 6 5 5 5 5 4 3 2 1 0 0 -0 -1 -1 0 -1 -3 -3 -4 -4 -4 -4 -5 -5 -5 -5 -5 -6 -6 -7 -6 -6 -6 -6 -6 -6
7 6 6 5 5 4 4 4 3 2 1 0 -0 -1 -3 -3 -5 -4 -1 -3 -4 -4 -4 -5 -5 -4 -5 -5 -6 -7 -7 -7 -6 -6 -6 -6 -6 -6
6 6 5 6 4 4 4 3 3 1 0 -1 -1 -3 -5 -5 -6 -6 -6 -5 -5 -5 -5 -5 -5 -5 -5 -6 -6 -7 -7 -7 -6 -6 -7 -6 -6 -6
6 5 5 5 4 4 3 2 2 1 -1 -2 -3 -6 -6 -6 -6 -6 -6 -6 -6 -6 -5 -5 -5 -5 -6 -6 -6 -7 -6 -6 -6 -5 -5 -6 -6 -6
5 4 5 4 3 3 2 2 2 1 -1 -2 -4 -6 -6 -6 -6 -6 -6 -5 -6 -6 -6 -6 -6 -6 -6 -6 -6 -6 -6 -6 -6 -6 -6 -6 -6 -6
5 4 4 4 4 3 3 2 1 0 -1 -1 -5 -7 -6 -6 -6 -6 -6 -5 -5 -6 -6 -6 -7 -6 -6 -6 -7 -6 -6 -6 -6 -6 -6 -6 -6 -6
5 4 4 4 4 4 3 3 1 -0 -1 -2 -5 -7 -6 -6 -6 -6 -6 -6 -6 -6 -6 -6 -7 -6 -6 -7 -7 -6 -6 -6 -6 -6 -6 -6 -6 -6
4 4 4 4 4 4 3 3 2 1 -0 -3 -5 -6 -6 -6 -7 -6 -6 -7 -7 -6 -7 -7 -7 -7 -6 -6 -7 -6 -6 -6 -6 -6 -6 -6 -5 -5
4 5 4 4 4 4 3 3 2 1 -1 -2 -3 -4 -6 -5 -6 -6 -6 -7 -7 -6 -7 -7 -7 -7 -7 -6 -6 -6 -6 -6 -6 -6 -6 -6 -5 -5
5 4 4 4 4 3 3 3 1 -0 -1 -3 -5 -6 -5 -5 -6 -6 -6 -6 -7 -7 -7 -7 -7 -7 -7 -6 -7 -6 -7 -7 -7 -7 -6 -6 -6 -6
4 4 4 4 3 3 3 2 0 -1 -1 -4 -6 -7 -7 -6 -6 -6 -6 -6 -7 -7 -7 -8 -7 -7 -7 -7 -7 -7 -6 -7 -7 -7 -7 -6 -6 -6
4 4 4 4 3 3 2 1 -1 -1 -2 -4 -7 -7 -7 -6 -6 -6 -6 -7 -7 -7 -7 -8 -7 -7 -7 -7 -7 -7 -7 -7 -7 -7 -7 -7 -7 -7
4 4 4 4 3 2 2 1 -1 -2 -2 -4 -7 -7 -6 -5 -6 -6 -6 -7 -7 -7 -8 -7 -7 -7 -7 -7 -7 -8 -7 -7 -7 -7 -7 -7 -7 -8
4 4 4 4 3 2 1 1 -1 -1 -2 -5 -7 -6 -7 -7 -6 -6 -6 -7 -7 -7 -8 -8 -8 -8 -7 -7 -8 -8 -7 -7 -6 -7 -7 -7 -7 -8
5 4 4 4 3 2 2 1 -1 -1 -2 -2 -4 -5 -6 -7 -8 -6 -6 -7 -7 -7 -8 -8 -8 -8 -7 -8 -8 -8 -8 -7 -7 -7 -7 -7 -7 -7
5 4 4 3 3 2 2 1 -0 -1 -1 -2 -3 -4 -5 -7 -7 -7 -7 -7 -7 -7 -8 -8 -8 -8 -8 -8 -8 -8 -8 -8 -7 -7 -7 -8 -8 -8
5 4 4 4 3 3 2 1 0 -1 -1 -2 -3 -4 -5 -6 -8 -7 -7 -7 -7 -7 -7 -8 -8 -8 -8 -8 -8 -8 -8 -8 -8 -8 -8 -8 -8 -8
5 4 4 4 3 3 2 2 1 -0 -1 -1 -2 -3 -4 -7 -7 -7 -7 -7 -7 -7 -7 -8 -8 -7 -8 -7 -7 -7 -8 -7 -8 -8 -8 -8 -8 -8
5 4 4 4 3 3 2 2 1 0 -1 -1 -2 -3 -4 -7 -8 -7 -7 -7 -7 -7 -8 -8 -8 -7 -8 -8 -7 -7 -8 -8 -8 -8 -8 -8 -8 -8

GFSNE_850_temp_321.txt.gz
Temp
9 9 9 8 8 7 7 7 6 5 4 2 1 1 1 1 1 -0 -1 -2 -3 -3 -4 -4 -5 -5 -5 -5 -4 -5 -5 -5 -5 -6 -5 -5 -5 -5
8 8 8 7 7 7 7 6 6 5 3 2 2 1 1 0 -0 -1 -2 -3 -3 -3 -3 -4 -5 -5 -6 -5 -5 -5 -6 -6 -5 -4 -5 -6 -5 -6
8 7 7 7 7 6 6 6 5 4 4 3 2 2 1 0 -1 -2 -2 -3 -3 -3 -4 -4 -5 -6 -6 -5 -5 -5 -6 -5 -6 -5 -4 -4 -5 -6
7 7 7 6 6 6 5 5 5 4 3 3 2 2 0 -1 -2 -3 -3 -4 -3 -5 -4 -5 -5 -6 -5 -5 -4 -5 -6 -5 -5 -6 -5 -5 -5 -5
7 6 6 6 6 5 5 5 4 4 3 3 2 1 0 -1 -2 -3 -4 -4 -4 -6 -5 -5 -5 -5 -5 -5 -4 -4 -5 -5 -5 -5 -6 -5 -5 -5
6 6 6 5 5 5 5 5 4 4 3 3 2 1 -0 -1 -2 -2 -3 -5 -5 -6 -5 -5 -5 -6 -5 -5 -5 -5 -5 -5 -5 -5 -5 -5 -5 -5
6 6 5 5 5 5 5 4 4 3 3 2 1 0 -1 -2 -2 -4 -4 -5 -5 -5 -5 -5 -5 -6 -5 -5 -5 -6 -5 -5 -5 -5 -5 -5 -5 -5
6 6 5 5 5 5 5 5 4 3 2 2 1 -0 -2 -3 -4 -4 -6 -5 -5 -5 -6 -6 -6 -6 -6 -6 -6 -6 -5 -5 -5 -5 -5 -5 -5 -5
6 5 5 5 5 5 4 4 3 3 3 1 0 -1 -1 -3 -4 -5 -6 -6 -6 -6 -6 -6 -6 -6 -6 -6 -6 -6 -6 -5 -6 -5 -5 -5 -5 -5
5 5 5 4 4 4 4 3 3 2 2 1 0 -1 -2 -4 -5 -5 -5 -6 -6 -7 -7 -6 -6 -6 -6 -7 -7 -7 -6 -6 -6 -6 -5 -5 -5 -5
5 4 4 4 4 4 4 3 2 2 2 1 0 -2 -3 -5 -5 -5 -5 -5 -6 -6 -7 -7 -7 -6 -6 -7 -7 -8 -7 -6 -6 -6 -6 -5 -5 -6
5 4 4 4 4 4 3 3 2 2 1 0 -0 -2 -3 -4 -5 -5 -5 -6 -6 -6 -7 -6 -7 -6 -6 -6 -6 -7 -8 -6 -6 -6 -6 -6 -6 -6
5 4 4 4 4 3 3 3 2 2 1 -0 -1 -1 -3 -4 -5 -5 -6 -7 -6 -7 -7 -7 -7 -7 -7 -7 -6 -7 -8 -8 -6 -7 -7 -7 -6 -6
4 4 4 4 3 3 3 3 2 2 0 -1 -1 -1 -2 -3 -4 -5 -6 -7 -7 -7 -8 -8 -7 -7 -7 -7 -7 -6 -7 -8 -8 -7 -7 -8 -7 -7
4 4 4 4 3 3 3 3 2 1 0 -0 -1 -1 -2 -3 -4 -6 -7 -6 -8 -8 -8 -8 -8 -8 -7 -8 -8 -8 -6 -7 -8 -7 -7 -7 -8 -7
4 4 4 3 3 3 3 2 2 1 0 -0 -1 -1 -2 -3 -5 -5 -7 -8 -8 -8 -8 -8 -8 -7 -7 -7 -8 -7 -7 -7 -7 -7 -7 -7 -8 -8
3 4 4 4 3 3 3 2 2 1 0 -0 -1 -2 -2 -3 -5 -5 -7 -8 -8 -8 -8 -8 -7 -7 -7 -7 -7 -8 -7 -7 -7 -7 -7 -7 -7 -8
3 4 4 4 3 3 3 2 2 2 1 -0 -1 -2 -2 -3 -5 -5 -6 -8 -8 -8 -8 -8 -8 -7 -7 -7 -7 -7 -8 -7 -7 -7 -7 -7 -8 -8
3 4 4 4 4 3 3 3 2 1 1 0 -1 -2 -2 -4 -5 -6 -5 -7 -7 -8 -8 -8 -8 -9 -8 -8 -8 -8 -8 -8 -8 -8 -7 -8 -8 -8
4 4 4 4 4 3 3 3 2 1 1 0 -1 -2 -2 -3 -5 -5 -6 -6 -7 -8 -8 -8 -8 -8 -8 -8 -8 -8 -8 -8 -8 -8 -8 -8 -8 -8
4 5 5 4 4 3 3 2 2 1 1 0 -0 -1 -2 -2 -4 -6 -6 -7 -8 -8 -8 -8 -8 -8 -8 -8 -8 -8 -8 -8 -8 -8 -8 -8 -7 -7
4 4 4 4 4 3 3 3 2 1 1 1 -0 -1 -1 -2 -4 -7 -7 -7 -7 -8 -8 -8 -8 -8 -8 -8 -8 -8 -8 -8 -8 -8 -8 -8 -8 -9
5 5 4 4 4 3 3 3 2 2 1 1 0 -0 -1 -2 -3 -6 -8 -8 -7 -8 -8 -8 -8 -8 -8 -8 -8 -8 -8 -8 -8 -8 -8 -8 -8 -8

GFSNE_850_temp_324.txt.gz
Temp
9 9 9 9 8 8 7 7 6 6 4 4 2 1 1 0 -0 -1 -2 -2 -3 -3 -3 -3 -5 -6 -5 -5 -5 -5 -6 -5 -5 -5 -5 -5 -5 -5
9 8 8 8 8 7 7 7 6 6 4 3 2 1 0 -1 -1 -1 -2 -3 -3 -3 -3 -4 -6 -6 -4 -4 -4 -6 -5 -5 -6 -5 -4 -4 -6 -6
8 8 8 8 7 7 7 6 6 5 4 3 2 1 -0 -1 -1 -2 -2 -3 -3 -3 -3 -5 -5 -5 -5 -4 -4 -4 -4 -4 -4 -5 -5 -4 -4 -5
8 7 7 7 7 6 6 6 5 5 4 3 2 1 0 -1 -2 -2 -2 -3 -3 -3 -4 -5 -5 -5 -5 -4 -4 -4 -4 -4 -4 -4 -4 -4 -4 -4
7 7 7 7 6 6 6 5 5 4 4 3 2 1 0 -1 -2 -2 -2 -3 -4 -4 -5 -5 -5 -5 -5 -5 -5 -4 -4 -4 -4 -4 -4 -4 -4 -4
6 6 6 6 6 5 5 5 5 4 4 3 2 1 -0 -1 -2 -2 -3 -4 -4 -5 -5 -5 -5 -5 -5 -5 -5 -5 -5 -5 -5 -4 -4 -4 -4 -4
6 6 6 5 5 5 5 5 5 4 4 3 2 1 -0 -1 -2 -2 -3 -3 -4 -4 -5 -5 -5 -5 -5 -5 -5 -5 -5 -5 -5 -5 -4 -4 -4 -5
6 6 5 5 5 5 5 5 4 4 4 3 2 0 -1 -2 -2 -2 -3 -3 -4 -4 -5 -5 -5 -6 -6 -6 -6 -5 -5 -5 -5 -5 -5 -5 -5 -5
5 5 5 5 5 4 4 4 4 4 4 3 2 0 -1 -3 -4 -4 -4 -4 -5 -5 -5 -5 -6 -6 -6 -7 -6 -6 -6 -6 -5 -5 -5 -5 -5 -5
5 5 5 5 4 4 4 4 4 3 3 2 1 0 -0 -2 -3 -4 -4 -5 -5 -6 -6 -5 -5 -6 -6 -7 -6 -7 -7 -6 -6 -6 -6 -6 -6 -6
5 5 4 4 4 4 4 3 3 3 3 2 1 1 -0 -1 -3 -4 -4 -4 -4 -6 -6 -6 -6 -5 -6 -7 -7 -7 -8 -7 -6 -6 -6 -6 -6 -6
5 4 4 4 4 4 3 3 3 3 2 1 1 0 -1 -2 -3 -4 -4 -5 -5 -5 -6 -6 -6 -6 -5 -6 -7 -6 -7 -8 -6 -6 -7 -7 -7 -6
4 4 4 4 4 3 3 3 3 2 2 2 1 -0 -1 -2 -3 -5 -4 -5 -5 -6 -7 -7 -6 -7 -7 -7 -6 -7 -7 -8 -7 -6 -7 -7 -7 -7
4 4 4 3 3 3 3 3 3 3 2 1 0 -0 -1 -2 -4 -5 -5 -6 -6 -7 -7 -7 -7 -7 -7 -7 -7 -6 -7 -6 -8 -7 -6 -7 -7 -8
4 4 3 3 4 3 3 3 3 2 1 0 -0 -1 -1 -2 -4 -5 -5 -5 -7 -8 -8 -7 -7 -7 -7 -7 -7 -7 -6 -6 -7 -7 -7 -7 -7 -7
4 4 3 3 3 3 3 3 2 2 1 1 -0 -1 -1 -2 -4 -5 -5 -6 -7 -8 -8 -7 -7 -7 -7 -7 -7 -7 -7 -7 -6 -7 -7 -7 -7 -7
3 3 4 4 4 3 3 3 2 2 1 0 0 -1 -1 -2 -3 -5 -6 -7 -7 -8 -8 -8 -7 -7 -7 -7 -7 -7 -7 -7 -7 -7 -7 -7 -7 -7
3 3 4 4 4 3 3 3 2 2 1 1 0 -1 -1 -2 -3 -4 -5 -6 -7 -8 -8 -8 -8 -7 -7 -7 -7 -7 -7 -7 -7 -7 -7 -7 -7 -8
3 3 4 4 4 4 3 3 3 2 1 1 0 -0 -1 -1 -2 -3 -5 -5 -6 -7 -8 -8 -8 -8 -8 -8 -7 -8 -8 -8 -7 -8 -8 -8 -7 -8
2 3 4 4 4 4 3 3 3 2 2 1 1 0 -1 -1 -2 -3 -5 -5 -6 -7 -7 -8 -8 -8 -8 -8 -8 -8 -8 -8 -8 -8 -8 -8 -8 -7
4 4 4 4 4 4 4 3 3 2 2 2 1 1 -0 -1 -2 -2 -4 -6 -6 -6 -7 -8 -8 -8 -8 -8 -8 -8 -8 -8 -8 -8 -8 -8 -7 -6
4 4 4 4 4 4 3 3 3 3 2 2 2 1 0 -0 -1 -2 -3 -5 -6 -7 -7 -8 -8 -8 -8 -8 -8 -8 -8 -8 -8 -8 -8 -9 -9 -8
4 4 4 4 4 3 3 3 3 3 3 2 2 1 0 0 -1 -2 -3 -4 -6 -7 -7 -8 -8 -8 -8 -8 -8 -8 -8 -8 -8 -8 -8 -8 -9 -8

GFSNE_850_temp_327.txt.gz
Temp
9 9 9 9 9 8 8 7 7 5 3 4 3 2 2 1 0 -1 -2 -2 -2 -2 -3 -3 -3 -3 -3 -3 -4 -5 -4 -5 -5 -5 -5 -5 -5 -5
9 9 9 9 8 8 7 7 7 6 4 4 3 2 2 0 -1 -1 -2 -2 -2 -2 -3 -4 -4 -3 -3 -3 -3 -3 -4 -4 -4 -4 -4 -4 -5 -6
9 8 8 8 8 7 7 7 6 6 5 4 3 2 1 0 -0 -1 -2 -2 -4 -3 -4 -4 -4 -4 -4 -3 -4 -4 -3 -4 -4 -4 -3 -3 -3 -4
8 8 8 7 7 7 7 6 6 5 4 3 2 1 1 0 -0 -2 -2 -3 -3 -3 -4 -4 -4 -4 -4 -4 -4 -4 -4 -4 -4 -4 -4 -4 -4 -4
8 7 7 7 7 6 6 6 5 5 4 3 2 1 1 0 -0 -2 -2 -3 -3 -4 -4 -5 -4 -5 -4 -4 -4 -4 -4 -4 -4 -4 -4 -4 -4 -4
7 7 7 6 6 6 6 5 5 5 4 3 2 1 1 0 -0 -2 -5 -5 -6 -5 -5 -5 -5 -5 -4 -4 -4 -5 -5 -5 -4 -4 -4 -4 -4 -4
7 7 6 6 6 6 5 5 5 4 4 3 2 2 1 0 -1 -3 -3 -4 -5 -4 -6 -6 -6 -6 -5 -5 -5 -5 -5 -5 -5 -5 -4 -4 -4 -5
6 6 6 6 6 5 5 5 5 4 4 3 3 2 0 -1 -1 -3 -2 -2 -4 -3 -4 -6 -5 -6 -6 -5 -6 -5 -6 -6 -5 -5 -5 -5 -5 -5
6 6 6 5 5 5 5 5 5 4 4 3 3 2 0 -1 -2 -2 -3 -3 -3 -3 -4 -5 -4 -6 -6 -7 -6 -6 -6 -6 -6 -5 -5 -5 -5 -5
5 5 5 5 5 5 5 4 4 4 4 3 3 1 0 -1 -2 -3 -3 -3 -4 -3 -4 -4 -4 -5 -6 -7 -6 -6 -7 -7 -6 -6 -6 -6 -6 -6
5 5 5 5 4 4 4 4 3 3 3 3 3 2 1 -1 -2 -3 -3 -3 -3 -4 -5 -5 -4 -5 -6 -6 -6 -6 -6 -6 -6 -6 -6 -6 -6 -6
5 5 5 5 4 4 4 4 3 3 3 3 2 1 0 -1 -2 -3 -3 -3 -4 -5 -5 -5 -5 -5 -5 -5 -6 -6 -6 -6 -6 -6 -6 -6 -6 -6
5 5 5 4 4 4 4 3 3 3 3 3 2 1 -0 -1 -2 -2 -3 -4 -4 -5 -5 -5 -5 -6 -6 -6 -5 -6 -5 -6 -6 -6 -7 -7 -7 -7
5 5 4 4 4 4 4 3 3 3 3 2 2 1 -0 -1 -1 -3 -3 -4 -4 -5 -5 -5 -5 -6 -6 -6 -7 -5 -6 -6 -6 -6 -6 -6 -7 -7
4 4 3 3 3 4 3 3 3 3 2 2 1 1 -0 -1 -2 -3 -3 -4 -5 -5 -5 -4 -4 -5 -6 -6 -7 -7 -6 -6 -6 -7 -7 -7 -7 -7
3 3 3 3 3 3 3 3 3 2 2 2 1 1 0 -1 -2 -3 -4 -5 -6 -7 -6 -4 -5 -5 -6 -6 -6 -6 -7 -7 -6 -7 -7 -7 -7 -7
3 3 3 3 4 4 3 3 3 2 2 2 1 1 0 -1 -1 -2 -4 -4 -6 -7 -7 -5 -5 -5 -6 -6 -6 -7 -7 -7 -7 -7 -7 -7 -7 -7
3 3 3 4 4 4 3 3 3 3 2 2 1 1 0 -0 -1 -2 -3 -4 -5 -7 -7 -6 -6 -7 -7 -6 -6 -7 -7 -7 -7 -7 -7 -8 -7 -7
2 3 3 4 4 4 3 3 3 2 2 2 2 1 0 -0 -1 -2 -3 -4 -4 -6 -7 -7 -7 -7 -7 -7 -6 -7 -7 -7 -7 -7 -8 -7 -7 -7
2 3 3 4 3 4 3 3 3 2 2 2 2 1 1 0 -1 -1 -2 -3 -4 -5 -6 -7 -7 -7 -7 -7 -8 -7 -7 -7 -8 -8 -8 -7 -7 -7
3 4 4 4 4 3 3 3 3 3 3 2 2 2 1 0 -0 -1 -1 -3 -3 -4 -5 -7 -7 -7 -7 -7 -7 -7 -7 -7 -7 -7 -8 -8 -8 -8
3 4 4 4 4 4 3 3 3 3 3 3 3 2 2 1 0 -0 -1 -2 -3 -4 -5 -7 -7 -7 -7 -7 -7 -7 -7 -7 -7 -7 -7 -8 -8 -8
5 4 4 4 4 4 3 3 3 3 3 3 3 2 2 1 1 -0 -1 -1 -2 -3 -5 -6 -7 -7 -7 -8 -7 -7 -7 -7 -8 -8 -7 -7 -7 -8